Weather History for KCDA - January, 2013

Change the Weather History Date:

Friday, January 4, 2013

  Actual Average (K1V4) Record (K1V4)
Temperature  
Mean Temperature 16 °F 18 °F  
Max Temperature 29 °F 27 °F 62 °F (1950)
Min Temperature 4 °F 8 °F -31 °F (1981)
Degree Days  
Heating Degree Days 48 47  
Month to date heating degree days 188  
Since 1 July heating degree days 3141  
Cooling Degree Days 0 0  
Month to date cooling degree days 0  
Year to date cooling degree days 0  
Moisture  
Dew Point 15 °F    
Average Humidity 80    
Maximum Humidity 88    
Minimum Humidity 68    
Precipitation  
Precipitation 0.00 in 0.08 in 0.91 in (2000)
Month to date precipitation 0.33  
Year to date precipitation 0.33  
Sea Level Pressure  
Sea Level Pressure 29.74 in    
Wind  
Wind Speed 2 mph (SW)    
Max Wind Speed 9 mph    
Max Gust Speed -    
Visibility 5 miles    
Events Snow    
T = Trace of Precipitation, MM = Missing Value Source: NWS Daily Summary

Daily Weather History Graph

Daily Weather History Graph

Search for Another Location

Airport or City:

Trip Planner

Search our weather history database for the weather conditions in past years. The results will help you decide how hot, cold, wet, or windy it might be!

Date:

Astronomy

Jan. 04, 2013 Rise Set
Actual Time 7:24 AM EST 4:21 PM EST
Civil Twilight 6:51 AM EST 4:55 PM EST
Nautical Twilight 6:14 AM EST 5:31 PM EST
Astronomical Twilight 5:39 AM EST 6:06 PM EST
Moon No Moon Rise 10:47 AM EST (1/4)
Length of Visible Light 10h 03m
Length of Day
8h 57m
Waning Gibbous, 55% of the Moon is Illuminated
Jan 4
Waning Gibbous
Jan 4
Last Quarter
Jan 11
New
Jan 18
First Quarter
Jan 26
Full

Hourly Weather History & Observations

Time (EST) Temp. Windchill Dew Point Humidity Pressure Visibility Wind Dir Wind Speed Gust Speed Precip Events Conditions
12:15 AM 5.7 °F - -2.7 °F 68% 29.86 in 10.0 mi Calm Calm - N/A   Overcast
12:35 AM 5.5 °F - -2.4 °F 70% 29.85 in 10.0 mi Calm Calm - N/A   Overcast
12:55 AM 5.4 °F - -1.3 °F 74% 29.85 in 10.0 mi Calm Calm - N/A Snow Light Snow
1:15 AM 5.0 °F - -1.7 °F 74% 29.84 in 3.0 mi Calm Calm - N/A Snow Light Snow
1:35 AM 5.0 °F - -1.7 °F 74% 29.83 in 4.0 mi Calm Calm - N/A Snow Light Snow
1:55 AM 5.5 °F - -1.8 °F 72% 29.83 in 3.0 mi Calm Calm - N/A Snow Light Snow
2:15 AM 4.5 °F - -1.3 °F 77% 29.83 in 4.0 mi Calm Calm - N/A Snow Light Snow
2:35 AM 5.5 °F - -1.3 °F 73% 29.83 in 4.0 mi Calm Calm - N/A Snow Light Snow
2:55 AM 5.9 °F - -1.1 °F 73% 29.83 in 1.5 mi Calm Calm - N/A Snow Light Snow
3:15 AM 6.3 °F - -0.4 °F 74% 29.83 in 1.5 mi Calm Calm - N/A Snow Light Snow
3:35 AM 6.6 °F - 0.3 °F 75% 29.83 in 4.0 mi Calm Calm - N/A Snow Light Snow
3:55 AM 7.3 °F - 0.9 °F 75% 29.83 in 5.0 mi Calm Calm - N/A Snow Light Snow
4:15 AM 7.5 °F - 1.6 °F 77% 29.82 in 10.0 mi Calm Calm - N/A   Overcast
7:15 AM 8.4 °F - 3.4 °F 80% 29.80 in 4.0 mi Calm Calm - N/A Snow Light Snow
7:35 AM 9.1 °F - 4.1 °F 80% 29.79 in 3.0 mi Calm Calm - N/A Snow Light Snow
8:15 AM 9.5 °F - 4.6 °F 81% 29.79 in 3.0 mi Calm Calm - N/A Snow Light Snow
8:35 AM 9.5 °F - 4.8 °F 81% 29.79 in 5.0 mi Calm Calm - N/A Snow Light Snow
8:55 AM 10.2 °F - 5.2 °F 80% 29.78 in 7.0 mi Calm Calm - N/A Snow Light Snow
9:15 AM 10.9 °F - 5.9 °F 80% 29.78 in 5.0 mi Calm Calm - N/A Snow Light Snow
9:35 AM 11.7 °F - 6.8 °F 81% 29.77 in 3.0 mi Calm Calm - N/A Snow Light Snow
9:55 AM 12.7 °F - 7.7 °F 80% 29.76 in 5.0 mi Calm Calm - N/A Snow Light Snow
10:15 AM 14.2 °F 8.4 °F 9.3 °F 81% 29.74 in 4.0 mi ESE 3.5 mph - N/A Snow Light Snow
10:35 AM 15.8 °F - 10.0 °F 78% 29.73 in 1.5 mi Calm Calm - N/A Snow Light Snow
10:55 AM 16.9 °F - 11.3 °F 79% 29.72 in 5.0 mi Calm Calm - N/A Snow Light Snow
11:15 AM 19.0 °F - 13.3 °F 78% 29.71 in 10.0 mi Calm Calm - N/A   Overcast
11:35 AM 20.1 °F 13.6 °F 14.9 °F 80% 29.71 in 10.0 mi South 4.6 mph - N/A   Overcast
11:55 AM 21.7 °F 14.3 °F 16.3 °F 80% 29.69 in 10.0 mi South 5.8 mph - N/A   Overcast
12:15 PM 23.2 °F 17.2 °F 17.6 °F 79% 29.69 in 7.0 mi South 4.6 mph - N/A Snow Light Snow
12:35 PM 24.3 °F 17.3 °F 18.3 °F 78% 29.68 in 5.0 mi ESE 5.8 mph - N/A Snow Light Snow
12:55 PM 24.3 °F 19.9 °F 18.5 °F 79% 29.68 in 4.0 mi SSE 3.5 mph - N/A Snow Light Snow
1:15 PM 27.9 °F 20.6 °F 20.5 °F 74% 29.68 in 2.0 mi SSW 6.9 mph - N/A Snow Light Snow
1:35 PM 28.4 °F 22.2 °F 21.9 °F 77% 29.68 in 2.0 mi SW 5.8 mph - N/A Snow Light Snow
1:55 PM 28.4 °F 22.2 °F 22.8 °F 80% 29.68 in 1.2 mi SW 5.8 mph - N/A Snow Light Snow
2:15 PM 28.4 °F 23.3 °F 23.9 °F 83% 29.68 in 1.0 mi SW 4.6 mph - N/A Snow Light Snow
2:35 PM 29.1 °F 23.0 °F 24.3 °F 82% 29.68 in 1.5 mi WSW 5.8 mph - N/A Snow Light Snow
2:55 PM 29.1 °F 23.0 °F 23.9 °F 81% 29.68 in 1.5 mi WSW 5.8 mph - N/A Snow Light Snow
3:15 PM 29.1 °F 22.1 °F 24.3 °F 82% 29.69 in 1.5 mi WSW 6.9 mph - N/A Snow Light Snow
3:35 PM 28.9 °F 22.8 °F 24.4 °F 83% 29.69 in 1.8 mi WSW 5.8 mph - N/A Snow Light Snow
3:55 PM 29.1 °F 20.6 °F 24.1 °F 81% 29.69 in 2.5 mi WSW 9.2 mph - N/A Snow Light Snow
4:15 PM 28.9 °F 22.8 °F 24.4 °F 83% 29.69 in 2.5 mi SW 5.8 mph - N/A Snow Light Snow
4:35 PM 28.9 °F 23.9 °F 24.4 °F 83% 29.69 in 4.0 mi WSW 4.6 mph - N/A Snow Light Snow
4:55 PM 28.9 °F 22.8 °F 24.4 °F 83% 29.69 in 3.0 mi WSW 5.8 mph - N/A Snow Light Snow
5:15 PM 28.8 °F 20.9 °F 24.8 °F 85% 29.69 in 2.5 mi West 8.1 mph - N/A Snow Light Snow
5:35 PM 28.4 °F 21.2 °F 24.8 °F 86% 29.69 in 2.0 mi West 6.9 mph - N/A Snow Light Snow
5:55 PM 28.8 °F 22.6 °F 25.2 °F 86% 29.69 in 2.0 mi WSW 5.8 mph - N/A Snow Light Snow
6:35 PM 28.4 °F - 25.3 °F 88% 29.70 in 7.0 mi Calm Calm - N/A Snow Light Snow
6:55 PM 28.6 °F 23.5 °F 25.0 °F 86% 29.71 in 7.0 mi West 4.6 mph - N/A   Overcast
7:15 PM 28.8 °F 25.0 °F 24.8 °F 85% 29.71 in 7.0 mi WSW 3.5 mph - N/A Snow Light Snow
7:35 PM 28.9 °F 23.9 °F 25.2 °F 86% 29.70 in 5.0 mi WSW 4.6 mph - N/A Snow Light Snow
7:55 PM 29.3 °F 21.5 °F 24.6 °F 83% 29.71 in 5.0 mi West 8.1 mph - N/A Snow Light Snow
8:15 PM 29.3 °F 20.8 °F 24.6 °F 83% 29.71 in 4.0 mi WSW 9.2 mph - N/A Snow Light Snow
8:35 PM 28.9 °F 25.2 °F 24.6 °F 84% 29.71 in 3.0 mi West 3.5 mph - N/A Snow Light Snow
8:55 PM 28.8 °F - 24.6 °F 84% 29.71 in 7.0 mi Calm Calm - N/A   Overcast
9:15 PM 29.3 °F - 23.9 °F 80% 29.70 in 10.0 mi Calm Calm - N/A   Overcast
9:35 PM 28.9 °F - 24.6 °F 84% 29.70 in 1.2 mi Calm Calm - N/A Snow Light Snow
9:55 PM 28.4 °F - 25.0 °F 87% 29.70 in 1.8 mi Calm Calm - N/A Snow Light Snow
10:15 PM 28.4 °F - 24.6 °F 86% 29.70 in 7.0 mi Calm Calm - N/A Snow Light Snow
10:35 PM 29.3 °F 24.3 °F 23.5 °F 79% 29.71 in 10.0 mi SW 4.6 mph - N/A Snow Light Snow
10:55 PM 28.9 °F 22.8 °F 23.2 °F 79% 29.71 in 10.0 mi WSW 5.8 mph - N/A Snow Light Snow
11:15 PM 29.3 °F 23.2 °F 22.1 °F 75% 29.71 in 10.0 mi WSW 5.8 mph - N/A Snow Light Snow
11:35 PM 29.1 °F 22.1 °F 22.1 °F 75% 29.70 in 10.0 mi WSW 6.9 mph - N/A   Overcast
11:55 PM 28.8 °F 25.0 °F 22.8 °F 78% 29.70 in 4.0 mi SW 3.5 mph - N/A Snow Light Snow